Weather History for LFBZ - September, 2013

Change the Weather History Date:

Saturday, September 28, 2013

  Actual Average Record
Temperature  
Mean Temperature 75 °F -  
Max Temperature 82 °F 67 °F 89 °F (2011)
Min Temperature 68 °F 53 °F 46 °F (2002)
Cooling Degree Days 10    
Growing Degree Days 25 (Base 50)    
Moisture  
Dew Point 56 °F    
Average Humidity 55    
Maximum Humidity 78    
Minimum Humidity 42    
Precipitation  
Precipitation 0.00 in - - ()
Sea Level Pressure  
Sea Level Pressure 29.64 in    
Wind  
Wind Speed 4 mph ()    
Max Wind Speed 10 mph    
Max Gust Speed 23 mph    
Visibility 6.2 miles    
Events      
Averages and records for this station are not official NWS values.
T = Trace of Precipitation, MM = Missing Value Source: Averaged Metar Reports

Daily Weather History Graph

Daily Weather History Graph

Search for Another Location

Airport or City:

Trip Planner

Search our weather history database for the weather conditions in past years. The results will help you decide how hot, cold, wet, or windy it might be!

Date:

Astronomy

Sep. 28, 2013 Rise Set
Actual Time 8:00 AM CEST 7:52 PM CEST
Civil Twilight 7:31 AM CEST 8:21 PM CEST
Nautical Twilight 6:58 AM CEST 8:54 PM CEST
Astronomical Twilight 6:24 AM CEST 9:27 PM CEST
Moon 1:25 AM CEST (9/28) 4:10 PM CEST (9/28)
Length of Visible Light 12h 49m
Length of Day
11h 52m
Last Quarter, 38% of the Moon is Illuminated
Sep 28
Last Quarter
Oct 5
New
Oct 12
First Quarter
Oct 19
Full
Oct 27
Last Quarter

Hourly Weather History & Observations

Time (CEST) Temp. Heat Index Dew Point Humidity Pressure Visibility Wind Dir Wind Speed Gust Speed Precip Events Conditions
12:00 AM 73.4 °F - 62.6 °F 69% 29.71 in 6.2 mi SE 3.5 mph - N/A   Unknown
12:30 AM 73.4 °F - 62.6 °F 69% 29.68 in 6.2 mi Variable 3.5 mph - N/A   Unknown
1:00 AM 73.4 °F - 60.8 °F 65% 29.68 in 6.2 mi Variable 2.3 mph - N/A   Unknown
1:30 AM 73.4 °F - 59.0 °F 61% 29.68 in 6.2 mi NW 4.6 mph - N/A   Unknown
2:00 AM 73.4 °F - 59.0 °F 61% 29.68 in 6.2 mi North 3.5 mph - N/A   Unknown
2:30 AM 71.6 °F - 59.0 °F 64% 29.68 in 6.2 mi Calm Calm - N/A   Unknown
3:00 AM 69.8 °F - 60.8 °F 73% 29.68 in 6.2 mi Variable 2.3 mph - N/A   Unknown
3:30 AM 68.0 °F - 60.8 °F 78% 29.68 in 6.2 mi ESE 3.5 mph - N/A   Unknown
4:00 AM 68.0 °F - 60.8 °F 78% 29.68 in 6.2 mi SE 4.6 mph - N/A   Unknown
4:30 AM 71.6 °F - 59.0 °F 64% 29.68 in 6.2 mi SSE 6.9 mph - N/A   Unknown
5:00 AM 71.6 °F - 57.2 °F 60% 29.65 in 6.2 mi ESE 4.6 mph - N/A   Unknown
5:30 AM 75.2 °F - 55.4 °F 50% 29.65 in 6.2 mi Variable 3.5 mph - N/A   Unknown
6:00 AM 75.2 °F - 55.4 °F 50% 29.65 in - SE 6.9 mph - N/A   Clear
6:30 AM 75.2 °F - 53.6 °F 47% 29.65 in - SE 3.5 mph - N/A   Clear
7:00 AM 75.2 °F - 55.4 °F 50% 29.65 in - South 10.4 mph 23.0 mph N/A   Clear
7:30 AM 73.4 °F - 55.4 °F 53% 29.62 in - SSE 9.2 mph - N/A   Clear
8:00 AM 71.6 °F - 55.4 °F 57% 29.62 in - SE 5.8 mph - N/A   Clear
8:30 AM 71.6 °F - 55.4 °F 57% 29.62 in - SE 5.8 mph - N/A   Clear
9:00 AM 71.6 °F - 55.4 °F 57% 29.65 in - Variable 2.3 mph - N/A   Clear
9:30 AM 71.6 °F - 57.2 °F 60% 29.65 in - Variable 3.5 mph - N/A   Clear
10:00 AM 73.4 °F - 57.2 °F 57% 29.65 in - Calm Calm - N/A   Clear
10:30 AM 75.2 °F - 57.2 °F 53% 29.65 in - SSE 9.2 mph 20.7 mph N/A   Clear
11:00 AM 77.0 °F - 57.2 °F 50% 29.65 in - Variable 8.1 mph - N/A   Clear
11:30 AM 78.8 °F - 57.2 °F 47% 29.65 in - SSE 10.4 mph - N/A   Clear
12:00 PM 77.0 °F - 55.4 °F 47% 29.65 in - Variable 5.8 mph - N/A   Clear
12:30 PM 77.0 °F - 55.4 °F 47% 29.65 in - Variable 5.8 mph - N/A   Clear
1:00 PM 78.8 °F - 57.2 °F 47% 29.65 in - Variable 4.6 mph - N/A   Clear
1:30 PM 77.0 °F - 57.2 °F 50% 29.65 in - Variable 3.5 mph - N/A   Clear
2:00 PM 80.6 °F 80.8 °F 57.2 °F 45% 29.62 in - Variable 5.8 mph - N/A   Clear
2:35 PM 82.4 °F 82.0 °F 57.2 °F 42% 29.62 in - Variable 4.6 mph - N/A   Clear
3:00 PM 82.4 °F 82.0 °F 57.2 °F 42% 29.59 in - Variable 4.6 mph - N/A   Clear
3:30 PM 80.6 °F 80.5 °F 55.4 °F 42% 29.59 in - Variable 6.9 mph - N/A   Clear
4:00 PM 80.6 °F 80.5 °F 55.4 °F 42% 29.59 in 6.2 mi South 4.6 mph - N/A   Mostly Cloudy
4:30 PM 78.8 °F - 57.2 °F 47% 29.59 in 6.2 mi SSE 6.9 mph - N/A   Mostly Cloudy
5:00 PM 78.8 °F - 59.0 °F 51% 29.59 in 6.2 mi Variable 4.6 mph - N/A   Mostly Cloudy
5:30 PM 77.0 °F - 53.6 °F 44% 29.59 in 6.2 mi South 6.9 mph - N/A   Mostly Cloudy
6:00 PM 77.0 °F - 53.6 °F 44% 29.62 in 6.2 mi Variable 6.9 mph - N/A   Mostly Cloudy
6:30 PM 73.4 °F - 53.6 °F 50% 29.59 in 6.2 mi Variable 9.2 mph - N/A   Unknown
7:00 PM 71.6 °F - 51.8 °F 50% 29.62 in 6.2 mi South 8.1 mph - N/A   Unknown
7:30 PM 71.6 °F - 53.6 °F 53% 29.62 in 6.2 mi South 5.8 mph - N/A   Unknown
8:00 PM 69.8 °F - 53.6 °F 56% 29.59 in 6.2 mi SE 6.9 mph - N/A   Unknown
8:30 PM 68.0 °F - 53.6 °F 60% 29.59 in 6.2 mi South 5.8 mph - N/A   Unknown
9:00 PM 69.8 °F - 51.8 °F 53% 29.59 in 6.2 mi Variable 5.8 mph - N/A   Unknown
9:30 PM 69.8 °F - 53.6 °F 56% 29.62 in 6.2 mi Variable 6.9 mph - N/A   Unknown
10:00 PM 69.8 °F - 51.8 °F 53% 29.62 in 6.2 mi South 5.8 mph - N/A   Unknown
10:30 PM 68.0 °F - 51.8 °F 56% 29.62 in 6.2 mi Variable 2.3 mph - N/A   Unknown
11:00 PM 68.0 °F - 53.6 °F 60% 29.62 in 6.2 mi Variable 3.5 mph - N/A   Unknown
11:30 PM 68.0 °F - 53.6 °F 60% 29.65 in 6.2 mi SSE 5.8 mph - N/A   Unknown